#datetime,building,power
2022-03-27T00:00:00,pth,1.20
2022-03-27T00:01:00,pth,1.20
2022-03-27T00:03:00,pth,2.40
2022-03-27T00:05:00,pth,2.40
2022-03-27T00:07:00,pth,2.40
2022-03-27T00:08:00,pth,1.20
2022-03-27T00:10:00,pth,2.40
2022-03-27T00:11:00,pth,1.20
2022-03-27T00:14:00,pth,2.40
2022-03-27T00:16:00,pth,2.40
2022-03-27T00:18:00,pth,2.40
2022-03-27T00:20:00,pth,2.40
2022-03-27T00:22:00,pth,2.40
2022-03-27T00:24:00,pth,2.40
2022-03-27T00:26:00,pth,1.20
2022-03-27T00:27:00,pth,1.20
2022-03-27T00:28:00,pth,1.20
2022-03-27T00:30:00,pth,1.20
2022-03-27T00:32:00,pth,2.40
2022-03-27T00:34:00,pth,2.40
2022-03-27T00:35:00,pth,1.20
2022-03-27T00:37:00,pth,1.20
2022-03-27T00:38:00,pth,1.19
2022-03-27T00:40:00,pth,2.40
2022-03-27T00:42:00,pth,1.20
2022-03-27T00:44:00,pth,2.40
2022-03-27T00:46:00,pth,1.19
2022-03-27T00:48:00,pth,2.40
2022-03-27T00:50:00,pth,2.40
2022-03-27T00:52:00,pth,1.20
2022-03-27T00:54:00,pth,2.40
2022-03-27T00:56:00,pth,2.40
2022-03-27T00:58:00,pth,2.40
2022-03-27T00:59:00,pth,1.20
2022-03-27T01:01:00,pth,1.19
2022-03-27T01:02:00,pth,1.20
2022-03-27T01:03:00,pth,1.20
2022-03-27T01:05:00,pth,2.40
2022-03-27T01:07:00,pth,2.40
2022-03-27T01:08:00,pth,1.20
2022-03-27T01:10:00,pth,2.40
2022-03-27T01:12:00,pth,1.20
2022-03-27T01:13:00,pth,1.20
2022-03-27T01:15:00,pth,2.40
2022-03-27T01:17:00,pth,2.40
2022-03-27T01:19:00,pth,2.40
2022-03-27T01:20:00,pth,1.20
2022-03-27T01:23:00,pth,2.40
2022-03-27T01:25:00,pth,2.40
2022-03-27T01:27:00,pth,2.40
2022-03-27T01:29:00,pth,1.19
2022-03-27T01:30:00,pth,1.20
2022-03-27T01:32:00,pth,2.40
2022-03-27T01:34:00,pth,2.40
2022-03-27T01:36:00,pth,2.40
2022-03-27T01:38:00,pth,1.20
2022-03-27T01:40:00,pth,2.40
2022-03-27T01:42:00,pth,1.20
2022-03-27T01:43:00,pth,1.19
2022-03-27T01:45:00,pth,2.40
2022-03-27T01:47:00,pth,2.40
2022-03-27T01:49:00,pth,1.20
2022-03-27T01:50:00,pth,1.20
2022-03-27T01:52:00,pth,2.40
2022-03-27T01:54:00,pth,2.40
2022-03-27T01:56:00,pth,1.20
2022-03-27T01:58:00,pth,2.40
2022-03-27T02:00:00,pth,2.40
2022-03-27T02:02:00,pth,2.40
2022-03-27T02:04:00,pth,1.20
2022-03-27T02:06:00,pth,2.40
2022-03-27T02:08:00,pth,2.40
2022-03-27T02:10:00,pth,2.40
2022-03-27T02:11:00,pth,1.19
2022-03-27T02:13:00,pth,2.40
2022-03-27T02:15:00,pth,2.40
2022-03-27T02:17:00,pth,2.40
2022-03-27T02:18:00,pth,1.19
2022-03-27T02:19:00,pth,1.20
2022-03-27T02:21:00,pth,1.20
2022-03-27T02:23:00,pth,2.40
2022-03-27T02:24:00,pth,1.20
2022-03-27T02:26:00,pth,2.40
2022-03-27T02:28:00,pth,1.20
2022-03-27T02:29:00,pth,1.20
2022-03-27T02:31:00,pth,2.40
2022-03-27T02:33:00,pth,2.40
2022-03-27T02:35:00,pth,1.20
2022-03-27T02:37:00,pth,2.40
2022-03-27T02:38:00,pth,1.20
2022-03-27T02:40:00,pth,2.40
2022-03-27T02:41:00,pth,1.20
2022-03-27T02:42:00,pth,1.20
2022-03-27T02:44:00,pth,2.40
2022-03-27T02:45:00,pth,1.20
2022-03-27T02:47:00,pth,2.40
2022-03-27T02:48:00,pth,1.20
2022-03-27T02:50:00,pth,2.40
2022-03-27T02:52:00,pth,2.40
2022-03-27T02:53:00,pth,1.20
2022-03-27T02:55:00,pth,1.20
2022-03-27T02:57:00,pth,2.40
2022-03-27T02:59:00,pth,2.40
2022-03-27T03:01:00,pth,2.40
2022-03-27T03:04:00,pth,2.40
2022-03-27T03:05:00,pth,1.20
2022-03-27T03:07:00,pth,2.40
2022-03-27T03:08:00,pth,1.20
2022-03-27T03:10:00,pth,2.40
2022-03-27T03:12:00,pth,2.40
2022-03-27T03:13:00,pth,1.19
2022-03-27T03:14:00,pth,1.20
2022-03-27T03:16:00,pth,2.40
2022-03-27T03:18:00,pth,2.40
2022-03-27T03:19:00,pth,1.19
2022-03-27T03:21:00,pth,1.20
2022-03-27T03:23:00,pth,2.40
2022-03-27T03:25:00,pth,2.40
2022-03-27T03:26:00,pth,1.19
2022-03-27T03:27:00,pth,1.20
2022-03-27T03:29:00,pth,1.20
2022-03-27T03:30:00,pth,1.20
2022-03-27T03:32:00,pth,2.40
2022-03-27T03:34:00,pth,2.40
2022-03-27T03:36:00,pth,2.40
2022-03-27T03:38:00,pth,1.20
2022-03-27T03:40:00,pth,2.40
2022-03-27T03:42:00,pth,2.40
2022-03-27T03:44:00,pth,2.40
2022-03-27T03:46:00,pth,1.20
2022-03-27T03:47:00,pth,1.20
2022-03-27T03:48:00,pth,1.19
2022-03-27T03:50:00,pth,2.40
2022-03-27T03:52:00,pth,2.40
2022-03-27T03:53:00,pth,1.20
2022-03-27T03:56:00,pth,2.40
2022-03-27T03:58:00,pth,2.40
2022-03-27T04:00:00,pth,2.40
2022-03-27T04:02:00,pth,2.40
2022-03-27T04:04:00,pth,2.40
2022-03-27T04:06:00,pth,1.20
2022-03-27T04:07:00,pth,1.20
2022-03-27T04:08:00,pth,1.20
2022-03-27T04:10:00,pth,2.40
2022-03-27T04:12:00,pth,2.40
2022-03-27T04:13:00,pth,1.20
2022-03-27T04:15:00,pth,2.40
2022-03-27T04:16:00,pth,1.20
2022-03-27T04:17:00,pth,1.20
2022-03-27T04:19:00,pth,2.40
2022-03-27T04:21:00,pth,1.20
2022-03-27T04:22:00,pth,1.19
2022-03-27T04:24:00,pth,2.40
2022-03-27T04:26:00,pth,2.40
2022-03-27T04:28:00,pth,2.40
2022-03-27T04:29:00,pth,1.20
2022-03-27T04:31:00,pth,2.40
2022-03-27T04:33:00,pth,2.40
2022-03-27T04:35:00,pth,1.20
2022-03-27T04:37:00,pth,2.40
2022-03-27T04:38:00,pth,1.20
2022-03-27T04:40:00,pth,2.40
2022-03-27T04:42:00,pth,2.40
2022-03-27T04:43:00,pth,1.20
2022-03-27T04:45:00,pth,2.40
2022-03-27T04:47:00,pth,2.40
2022-03-27T04:49:00,pth,1.19
2022-03-27T04:51:00,pth,2.40
2022-03-27T04:52:00,pth,1.20
2022-03-27T04:54:00,pth,2.40
2022-03-27T04:56:00,pth,2.40
2022-03-27T04:58:00,pth,1.20
2022-03-27T04:59:00,pth,1.20
2022-03-27T05:01:00,pth,2.40
2022-03-27T05:03:00,pth,1.20
2022-03-27T05:04:00,pth,1.19
2022-03-27T05:05:00,pth,1.20
2022-03-27T05:07:00,pth,2.40
2022-03-27T05:08:00,pth,1.20
2022-03-27T05:10:00,pth,2.40
2022-03-27T05:11:00,pth,1.20
2022-03-27T05:13:00,pth,1.20
2022-03-27T05:14:00,pth,1.20
2022-03-27T05:16:00,pth,2.40
2022-03-27T05:18:00,pth,2.40
2022-03-27T05:19:00,pth,1.20
2022-03-27T05:21:00,pth,2.40
2022-03-27T05:23:00,pth,2.40
2022-03-27T05:25:00,pth,1.20
2022-03-27T05:27:00,pth,2.40
2022-03-27T05:28:00,pth,1.20
2022-03-27T05:29:00,pth,1.20
2022-03-27T05:31:00,pth,2.40
2022-03-27T05:33:00,pth,2.40
2022-03-27T05:35:00,pth,2.40
2022-03-27T05:37:00,pth,1.20
2022-03-27T05:39:00,pth,2.40
2022-03-27T05:41:00,pth,2.40
2022-03-27T05:43:00,pth,2.40
2022-03-27T05:45:00,pth,1.19
2022-03-27T05:47:00,pth,2.40
2022-03-27T05:48:00,pth,1.20
2022-03-27T05:50:00,pth,2.40
2022-03-27T05:52:00,pth,1.19
2022-03-27T05:54:00,pth,2.40
2022-03-27T05:56:00,pth,2.40
2022-03-27T05:58:00,pth,2.40
2022-03-27T06:01:00,pth,2.40
2022-03-27T06:02:00,pth,1.20
2022-03-27T06:04:00,pth,2.40
2022-03-27T06:06:00,pth,2.40
2022-03-27T06:08:00,pth,2.40
2022-03-27T06:10:00,pth,2.40
2022-03-27T06:12:00,pth,2.40
2022-03-27T06:14:00,pth,2.40
2022-03-27T06:15:00,pth,1.20
2022-03-27T06:17:00,pth,2.40
2022-03-27T06:18:00,pth,1.19
2022-03-27T06:19:00,pth,1.20
2022-03-27T06:21:00,pth,2.40
2022-03-27T06:23:00,pth,2.40
2022-03-27T06:24:00,pth,1.20
2022-03-27T06:26:00,pth,2.40
2022-03-27T06:27:00,pth,1.20
2022-03-27T06:29:00,pth,2.40
2022-03-27T06:30:00,pth,1.20
2022-03-27T06:32:00,pth,2.40
2022-03-27T06:34:00,pth,1.20
2022-03-27T06:35:00,pth,1.20
2022-03-27T06:37:00,pth,2.40
2022-03-27T06:39:00,pth,2.40
2022-03-27T06:41:00,pth,2.40
2022-03-27T06:42:00,pth,1.20
2022-03-27T06:44:00,pth,1.20
2022-03-27T06:46:00,pth,2.40
2022-03-27T06:48:00,pth,2.40
2022-03-27T06:50:00,pth,1.20
2022-03-27T06:52:00,pth,2.40
2022-03-27T06:53:00,pth,1.19
2022-03-27T06:55:00,pth,2.40
2022-03-27T06:58:00,pth,2.40
2022-03-27T07:00:00,pth,2.40
2022-03-27T07:01:00,pth,1.20
2022-03-27T07:03:00,pth,1.20
2022-03-27T07:04:00,pth,1.20
2022-03-27T07:06:00,pth,2.40
2022-03-27T07:08:00,pth,2.40
2022-03-27T07:10:00,pth,1.20
2022-03-27T07:11:00,pth,1.20
2022-03-27T07:13:00,pth,2.40
2022-03-27T07:15:00,pth,2.40
2022-03-27T07:17:00,pth,1.20
2022-03-27T07:18:00,pth,1.20
2022-03-27T07:20:00,pth,1.20
2022-03-27T07:22:00,pth,2.40
2022-03-27T07:24:00,pth,1.19
2022-03-27T07:26:00,pth,2.40
2022-03-27T07:29:00,pth,2.40
2022-03-27T07:32:00,pth,2.40
2022-03-27T07:34:00,pth,1.20
2022-03-27T07:35:00,pth,1.20
2022-03-27T07:37:00,pth,1.20
2022-03-27T07:39:00,pth,1.20
2022-03-27T07:40:00,pth,1.20
2022-03-27T07:42:00,pth,1.19
2022-03-27T07:44:00,pth,1.20
2022-03-27T07:46:00,pth,1.20
2022-03-27T07:48:00,pth,2.40
2022-03-27T07:50:00,pth,1.20
2022-03-27T07:52:00,pth,1.19
2022-03-27T07:54:00,pth,2.40
2022-03-27T07:57:00,pth,2.40
2022-03-27T07:59:00,pth,1.20
2022-03-27T08:01:00,pth,2.40
2022-03-27T08:04:00,pth,2.40
2022-03-27T08:06:00,pth,1.20
2022-03-27T08:08:00,pth,2.40
2022-03-27T08:09:00,pth,1.19
2022-03-27T08:11:00,pth,1.20
2022-03-27T08:13:00,pth,2.40
2022-03-27T08:15:00,pth,1.20
2022-03-27T08:16:00,pth,1.20
2022-03-27T08:18:00,pth,3.60
2022-03-27T08:20:00,pth,2.40
2022-03-27T08:21:00,pth,1.20
2022-03-27T08:24:00,pth,3.60
2022-03-27T08:25:00,pth,1.20
2022-03-27T08:27:00,pth,2.40
2022-03-27T08:29:00,pth,2.40
2022-03-27T08:31:00,pth,1.20
2022-03-27T08:33:00,pth,2.40
2022-03-27T08:36:00,pth,2.40
2022-03-27T08:38:00,pth,2.40
2022-03-27T08:40:00,pth,1.20
2022-03-27T08:41:00,pth,1.20
2022-03-27T08:43:00,pth,1.20
2022-03-27T08:45:00,pth,1.20
2022-03-27T08:48:00,pth,2.40
2022-03-27T08:50:00,pth,1.20
2022-03-27T08:52:00,pth,1.20
2022-03-27T08:54:00,pth,1.20
2022-03-27T08:56:00,pth,2.40
2022-03-27T08:58:00,pth,1.20
2022-03-27T09:00:00,pth,1.20
2022-03-27T09:01:00,pth,1.20
2022-03-27T09:04:00,pth,2.40
2022-03-27T09:06:00,pth,1.20
2022-03-27T09:07:00,pth,1.19
2022-03-27T09:09:00,pth,1.20
2022-03-27T09:10:00,pth,1.20
2022-03-27T09:12:00,pth,1.20
2022-03-27T09:13:00,pth,1.20
2022-03-27T09:15:00,pth,2.40
2022-03-27T09:18:00,pth,2.40
2022-03-27T09:21:00,pth,2.40
2022-03-27T09:24:00,pth,1.20
2022-03-27T09:26:00,pth,2.40
2022-03-27T09:28:00,pth,2.40
2022-03-27T09:30:00,pth,1.20
2022-03-27T09:32:00,pth,2.40
2022-03-27T09:34:00,pth,1.20
2022-03-27T09:35:00,pth,1.20
2022-03-27T09:36:00,pth,1.20
2022-03-27T09:38:00,pth,2.40
2022-03-27T09:40:00,pth,1.20
2022-03-27T09:42:00,pth,1.19
2022-03-27T09:43:00,pth,1.20
2022-03-27T09:44:00,pth,1.20
2022-03-27T09:46:00,pth,1.20
2022-03-27T09:48:00,pth,1.20
2022-03-27T09:50:00,pth,1.20
2022-03-27T09:52:00,pth,2.40
2022-03-27T09:54:00,pth,1.20
2022-03-27T09:55:00,pth,1.20
2022-03-27T09:57:00,pth,2.40
2022-03-27T10:00:00,pth,2.40
2022-03-27T10:02:00,pth,1.20
2022-03-27T10:04:00,pth,2.40
2022-03-27T10:06:00,pth,1.20
2022-03-27T10:07:00,pth,1.19
2022-03-27T10:09:00,pth,1.20
2022-03-27T10:11:00,pth,2.40
2022-03-27T10:13:00,pth,2.40
2022-03-27T10:15:00,pth,1.20
2022-03-27T10:16:00,pth,1.19
2022-03-27T10:17:00,pth,1.20
2022-03-27T10:19:00,pth,1.20
2022-03-27T10:21:00,pth,1.20
2022-03-27T10:23:00,pth,1.20
2022-03-27T10:24:00,pth,1.20
2022-03-27T10:25:00,pth,1.19
2022-03-27T10:26:00,pth,1.19
2022-03-27T10:27:00,pth,1.20
2022-03-27T10:29:00,pth,2.40
2022-03-27T10:30:00,pth,1.20
2022-03-27T10:32:00,pth,1.20
2022-03-27T10:34:00,pth,2.40
2022-03-27T10:36:00,pth,1.20
2022-03-27T10:37:00,pth,1.20
2022-03-27T10:39:00,pth,2.40
2022-03-27T10:41:00,pth,1.19
2022-03-27T10:42:00,pth,1.20
2022-03-27T10:44:00,pth,2.40
2022-03-27T10:45:00,pth,1.20
2022-03-27T10:47:00,pth,2.40
2022-03-27T10:49:00,pth,1.19
2022-03-27T10:51:00,pth,2.40
2022-03-27T10:52:00,pth,1.20
2022-03-27T10:54:00,pth,1.20
2022-03-27T10:57:00,pth,2.40
2022-03-27T10:59:00,pth,1.20
2022-03-27T11:00:00,pth,1.20
2022-03-27T11:02:00,pth,1.20
2022-03-27T11:04:00,pth,2.40
2022-03-27T11:06:00,pth,1.19
2022-03-27T11:07:00,pth,1.20
2022-03-27T11:09:00,pth,1.20
2022-03-27T11:10:00,pth,1.20
2022-03-27T11:12:00,pth,1.20
2022-03-27T11:14:00,pth,2.40
2022-03-27T11:16:00,pth,1.20
2022-03-27T11:17:00,pth,1.20
2022-03-27T11:20:00,pth,2.40
2022-03-27T11:22:00,pth,1.20
2022-03-27T11:23:00,pth,1.20
2022-03-27T11:25:00,pth,1.19
2022-03-27T11:26:00,pth,1.20
2022-03-27T11:29:00,pth,2.40
2022-03-27T11:30:00,pth,1.20
2022-03-27T11:32:00,pth,1.20
2022-03-27T11:34:00,pth,2.40
2022-03-27T11:36:00,pth,2.40
2022-03-27T11:37:00,pth,1.20
2022-03-27T11:39:00,pth,1.20
2022-03-27T11:41:00,pth,2.40
2022-03-27T11:43:00,pth,2.40
2022-03-27T11:45:00,pth,2.40
2022-03-27T11:47:00,pth,2.40
2022-03-27T11:48:00,pth,1.20
2022-03-27T11:50:00,pth,1.20
2022-03-27T11:51:00,pth,1.20
2022-03-27T11:53:00,pth,2.40
2022-03-27T11:55:00,pth,2.40
2022-03-27T11:57:00,pth,2.40
2022-03-27T12:00:00,pth,2.40
2022-03-27T12:02:00,pth,1.19
2022-03-27T12:03:00,pth,1.20
2022-03-27T12:05:00,pth,2.40
2022-03-27T12:07:00,pth,1.20
2022-03-27T12:09:00,pth,2.40
2022-03-27T12:11:00,pth,1.20
2022-03-27T12:13:00,pth,2.40
2022-03-27T12:14:00,pth,1.20
2022-03-27T12:16:00,pth,2.40
2022-03-27T12:17:00,pth,1.20
2022-03-27T12:18:00,pth,1.20
2022-03-27T12:19:00,pth,1.20
2022-03-27T12:21:00,pth,1.20
2022-03-27T12:23:00,pth,2.40
2022-03-27T12:25:00,pth,1.19
2022-03-27T12:28:00,pth,2.40
2022-03-27T12:30:00,pth,1.20
2022-03-27T12:31:00,pth,1.20
2022-03-27T12:33:00,pth,1.20
2022-03-27T12:35:00,pth,1.19
2022-03-27T12:37:00,pth,2.40
2022-03-27T12:39:00,pth,10.80
2022-03-27T12:41:00,pth,13.20
2022-03-27T12:43:00,pth,13.20
2022-03-27T12:44:00,pth,6.00
2022-03-27T12:46:00,pth,12.00
2022-03-27T12:47:00,pth,7.20
2022-03-27T12:49:00,pth,12.00
2022-03-27T12:50:00,pth,6.00
2022-03-27T12:51:00,pth,7.20
2022-03-27T12:53:00,pth,10.80
2022-03-27T12:54:00,pth,3.60
2022-03-27T12:56:00,pth,8.40
2022-03-27T12:57:00,pth,3.60
2022-03-27T12:59:00,pth,6.00
2022-03-27T13:00:00,pth,3.60
2022-03-27T13:02:00,pth,7.20
2022-03-27T13:03:00,pth,3.60
2022-03-27T13:05:00,pth,3.60
2022-03-27T13:07:00,pth,2.40
2022-03-27T13:09:00,pth,3.60
2022-03-27T13:10:00,pth,2.40
2022-03-27T13:11:00,pth,3.60
2022-03-27T13:12:00,pth,1.20
2022-03-27T13:14:00,pth,2.40
2022-03-27T13:15:00,pth,2.40
2022-03-27T13:17:00,pth,7.20
2022-03-27T13:19:00,pth,2.40
2022-03-27T13:21:00,pth,4.80
2022-03-27T13:23:00,pth,6.01
2022-03-27T13:25:00,pth,2.40
2022-03-27T13:27:00,pth,6.00
2022-03-27T13:29:00,pth,4.80
2022-03-27T13:31:00,pth,2.40
2022-03-27T13:33:00,pth,6.01
2022-03-27T13:34:00,pth,2.40
2022-03-27T13:35:00,pth,1.20
2022-03-27T13:37:00,pth,2.40
2022-03-27T13:39:00,pth,7.20
2022-03-27T13:41:00,pth,7.20
2022-03-27T13:43:00,pth,4.80
2022-03-27T13:45:00,pth,6.01
2022-03-27T13:47:00,pth,13.20
2022-03-27T13:49:00,pth,13.20
2022-03-27T13:50:00,pth,7.20
2022-03-27T13:52:00,pth,13.20
2022-03-27T13:54:00,pth,13.21
2022-03-27T13:56:00,pth,14.40
2022-03-27T13:57:00,pth,8.39
2022-03-27T13:58:00,pth,7.21
2022-03-27T13:59:00,pth,7.20
2022-03-27T14:01:00,pth,13.20
2022-03-27T14:03:00,pth,13.20
2022-03-27T14:05:00,pth,13.20
2022-03-27T14:06:00,pth,7.20
2022-03-27T14:07:00,pth,6.01
2022-03-27T14:09:00,pth,13.20
2022-03-27T14:11:00,pth,13.20
2022-03-27T14:12:00,pth,6.00
2022-03-27T14:14:00,pth,13.20
2022-03-27T14:16:00,pth,12.00
2022-03-27T14:18:00,pth,13.20
2022-03-27T14:19:00,pth,6.00
2022-03-27T14:20:00,pth,6.00
2022-03-27T14:22:00,pth,13.21
2022-03-27T14:24:00,pth,8.40
2022-03-27T14:26:00,pth,6.00
2022-03-27T14:27:00,pth,7.20
2022-03-27T14:28:00,pth,6.00
2022-03-27T14:30:00,pth,12.00
2022-03-27T14:31:00,pth,1.20
2022-03-27T14:33:00,pth,6.00
2022-03-27T14:35:00,pth,13.21
2022-03-27T14:36:00,pth,6.00
2022-03-27T14:38:00,pth,4.80
2022-03-27T14:40:00,pth,9.60
2022-03-27T14:41:00,pth,6.00
2022-03-27T14:43:00,pth,13.20
2022-03-27T14:45:00,pth,3.60
2022-03-27T14:47:00,pth,1.20
2022-03-27T14:49:00,pth,1.20
2022-03-27T14:51:00,pth,2.40
2022-03-27T14:53:00,pth,1.20
2022-03-27T14:55:00,pth,12.00
2022-03-27T14:56:00,pth,7.20
2022-03-27T14:58:00,pth,13.20
2022-03-27T15:00:00,pth,13.20
2022-03-27T15:02:00,pth,13.20
2022-03-27T15:03:00,pth,6.01
2022-03-27T15:05:00,pth,13.20
2022-03-27T15:07:00,pth,13.20
2022-03-27T15:08:00,pth,7.20
2022-03-27T15:10:00,pth,13.20
2022-03-27T15:12:00,pth,12.00
2022-03-27T15:13:00,pth,7.20
2022-03-27T15:15:00,pth,13.20
2022-03-27T15:17:00,pth,4.80
2022-03-27T15:19:00,pth,2.40
2022-03-27T15:21:00,pth,7.20
2022-03-27T15:23:00,pth,13.20
2022-03-27T15:25:00,pth,13.21
2022-03-27T15:27:00,pth,1.19
2022-03-27T15:28:00,pth,1.20
2022-03-27T15:30:00,pth,2.40
2022-03-27T15:32:00,pth,2.40
2022-03-27T15:34:00,pth,2.40
2022-03-27T15:35:00,pth,1.20
2022-03-27T15:37:00,pth,2.40
2022-03-27T15:39:00,pth,1.20
2022-03-27T15:40:00,pth,1.19
2022-03-27T15:42:00,pth,1.20
2022-03-27T15:44:00,pth,2.40
2022-03-27T15:46:00,pth,2.40
2022-03-27T15:48:00,pth,2.40
2022-03-27T15:50:00,pth,2.40
2022-03-27T15:51:00,pth,1.20
2022-03-27T15:53:00,pth,1.20
2022-03-27T15:55:00,pth,2.40
2022-03-27T15:57:00,pth,1.20
2022-03-27T15:59:00,pth,2.40
2022-03-27T16:01:00,pth,2.40
2022-03-27T16:02:00,pth,1.19
2022-03-27T16:04:00,pth,1.20
2022-03-27T16:05:00,pth,1.20
2022-03-27T16:07:00,pth,2.40
2022-03-27T16:09:00,pth,2.40
2022-03-27T16:11:00,pth,1.20
2022-03-27T16:13:00,pth,2.40
2022-03-27T16:14:00,pth,1.20
2022-03-27T16:16:00,pth,1.20
2022-03-27T16:18:00,pth,2.40
2022-03-27T16:20:00,pth,1.20
2022-03-27T16:21:00,pth,1.20
2022-03-27T16:23:00,pth,2.40
2022-03-27T16:25:00,pth,2.40
2022-03-27T16:27:00,pth,8.40
2022-03-27T16:28:00,pth,7.20
2022-03-27T16:30:00,pth,13.21
2022-03-27T16:32:00,pth,13.20
2022-03-27T16:34:00,pth,13.20
2022-03-27T16:36:00,pth,12.00
2022-03-27T16:38:00,pth,13.21
2022-03-27T16:40:00,pth,13.20
2022-03-27T16:42:00,pth,13.20
2022-03-27T16:44:00,pth,12.00
2022-03-27T16:45:00,pth,7.20
2022-03-27T16:47:00,pth,8.39
2022-03-27T16:49:00,pth,12.00
2022-03-27T16:51:00,pth,13.20
2022-03-27T16:53:00,pth,6.00
2022-03-27T16:55:00,pth,13.21
2022-03-27T16:56:00,pth,2.40
2022-03-27T16:57:00,pth,3.60
2022-03-27T16:59:00,pth,7.20
2022-03-27T17:01:00,pth,2.40
2022-03-27T17:02:00,pth,1.20
2022-03-27T17:04:00,pth,2.40
2022-03-27T17:06:00,pth,1.20
2022-03-27T17:07:00,pth,1.20
2022-03-27T17:09:00,pth,1.19
2022-03-27T17:10:00,pth,1.20
2022-03-27T17:11:00,pth,1.20
2022-03-27T17:13:00,pth,3.60
2022-03-27T17:14:00,pth,2.40
2022-03-27T17:16:00,pth,2.40
2022-03-27T17:17:00,pth,2.40
2022-03-27T17:18:00,pth,2.40
2022-03-27T17:20:00,pth,3.60
2022-03-27T17:21:00,pth,1.20
2022-03-27T17:23:00,pth,2.40
2022-03-27T17:25:00,pth,1.20
2022-03-27T17:26:00,pth,1.20
2022-03-27T17:28:00,pth,1.20
2022-03-27T17:29:00,pth,1.20
2022-03-27T17:31:00,pth,2.40
2022-03-27T17:34:00,pth,2.40
2022-03-27T17:36:00,pth,1.20
2022-03-27T17:38:00,pth,2.40
2022-03-27T17:41:00,pth,2.40
2022-03-27T17:43:00,pth,1.20
2022-03-27T17:45:00,pth,2.40
2022-03-27T17:47:00,pth,1.20
2022-03-27T17:49:00,pth,1.20
2022-03-27T17:50:00,pth,1.19
2022-03-27T17:52:00,pth,1.20
2022-03-27T17:54:00,pth,1.20
2022-03-27T17:56:00,pth,2.40
2022-03-27T17:59:00,pth,2.40
2022-03-27T18:00:00,pth,1.20
2022-03-27T18:01:00,pth,1.20
2022-03-27T18:03:00,pth,1.20
2022-03-27T18:05:00,pth,2.40
2022-03-27T18:07:00,pth,2.40
2022-03-27T18:08:00,pth,1.20
2022-03-27T18:10:00,pth,1.20
2022-03-27T18:12:00,pth,2.40
2022-03-27T18:14:00,pth,1.20
2022-03-27T18:15:00,pth,1.19
2022-03-27T18:17:00,pth,1.20
2022-03-27T18:18:00,pth,1.20
2022-03-27T18:21:00,pth,2.40
2022-03-27T18:23:00,pth,1.20
2022-03-27T18:26:00,pth,2.40
2022-03-27T18:29:00,pth,2.40
2022-03-27T18:32:00,pth,2.40
2022-03-27T18:33:00,pth,1.19
2022-03-27T18:36:00,pth,3.60
2022-03-27T18:37:00,pth,1.20
2022-03-27T18:39:00,pth,3.60
2022-03-27T18:41:00,pth,3.60
2022-03-27T18:43:00,pth,3.60
2022-03-27T18:45:00,pth,2.40
2022-03-27T18:46:00,pth,1.20
2022-03-27T18:47:00,pth,1.20
2022-03-27T18:48:00,pth,2.40
2022-03-27T18:50:00,pth,2.40
2022-03-27T18:52:00,pth,1.20
2022-03-27T18:54:00,pth,3.60
2022-03-27T18:55:00,pth,1.20
2022-03-27T18:57:00,pth,2.40
2022-03-27T18:59:00,pth,2.40
2022-03-27T19:01:00,pth,3.60
2022-03-27T19:03:00,pth,1.20
2022-03-27T19:04:00,pth,2.40
2022-03-27T19:05:00,pth,1.20
2022-03-27T19:06:00,pth,1.19
2022-03-27T19:08:00,pth,1.20
2022-03-27T19:09:00,pth,1.20
2022-03-27T19:11:00,pth,2.40
2022-03-27T19:12:00,pth,1.20
2022-03-27T19:14:00,pth,3.60
2022-03-27T19:15:00,pth,1.20
2022-03-27T19:17:00,pth,3.60
2022-03-27T19:18:00,pth,1.20
2022-03-27T19:20:00,pth,3.60
2022-03-27T19:21:00,pth,1.20
2022-03-27T19:23:00,pth,2.40
2022-03-27T19:24:00,pth,2.40
2022-03-27T19:26:00,pth,2.40
2022-03-27T19:27:00,pth,1.20
2022-03-27T19:28:00,pth,2.40
2022-03-27T19:30:00,pth,2.40
2022-03-27T19:31:00,pth,1.20
2022-03-27T19:33:00,pth,2.40
2022-03-27T19:34:00,pth,1.20
2022-03-27T19:36:00,pth,2.40
2022-03-27T19:38:00,pth,2.40
2022-03-27T19:39:00,pth,1.19
2022-03-27T19:41:00,pth,2.40
2022-03-27T19:43:00,pth,2.40
2022-03-27T19:45:00,pth,2.40
2022-03-27T19:46:00,pth,1.20
2022-03-27T19:48:00,pth,2.40
2022-03-27T19:50:00,pth,1.20
2022-03-27T19:52:00,pth,2.40
2022-03-27T19:54:00,pth,2.40
2022-03-27T19:56:00,pth,2.40
2022-03-27T19:58:00,pth,1.20
2022-03-27T20:00:00,pth,2.40
2022-03-27T20:01:00,pth,1.20
2022-03-27T20:03:00,pth,2.40
2022-03-27T20:05:00,pth,2.40
2022-03-27T20:07:00,pth,2.40
2022-03-27T20:08:00,pth,1.20
2022-03-27T20:10:00,pth,3.60
2022-03-27T20:12:00,pth,2.40
2022-03-27T20:13:00,pth,1.20
2022-03-27T20:14:00,pth,1.20
2022-03-27T20:16:00,pth,2.40
2022-03-27T20:18:00,pth,3.60
2022-03-27T20:20:00,pth,2.40
2022-03-27T20:21:00,pth,1.20
2022-03-27T20:23:00,pth,3.60
2022-03-27T20:24:00,pth,1.20
2022-03-27T20:26:00,pth,2.40
2022-03-27T20:28:00,pth,3.60
2022-03-27T20:30:00,pth,2.40
2022-03-27T20:31:00,pth,1.20
2022-03-27T20:33:00,pth,2.40
2022-03-27T20:35:00,pth,4.80
2022-03-27T20:36:00,pth,2.40
2022-03-27T20:37:00,pth,2.40
2022-03-27T20:39:00,pth,4.80
2022-03-27T20:41:00,pth,4.80
2022-03-27T20:42:00,pth,2.40
2022-03-27T20:44:00,pth,4.80
2022-03-27T20:45:00,pth,2.40
2022-03-27T20:47:00,pth,3.60
2022-03-27T20:49:00,pth,6.00
2022-03-27T20:51:00,pth,6.01
2022-03-27T20:53:00,pth,7.20
2022-03-27T20:54:00,pth,3.60
2022-03-27T20:56:00,pth,6.00
2022-03-27T20:58:00,pth,4.80
2022-03-27T20:59:00,pth,2.40
2022-03-27T21:01:00,pth,6.01
2022-03-27T21:02:00,pth,2.40
2022-03-27T21:04:00,pth,4.80
2022-03-27T21:06:00,pth,6.00
2022-03-27T21:07:00,pth,2.40
2022-03-27T21:08:00,pth,1.20
2022-03-27T21:10:00,pth,4.80
2022-03-27T21:12:00,pth,3.60
2022-03-27T21:14:00,pth,2.40
2022-03-27T21:15:00,pth,2.40
2022-03-27T21:16:00,pth,1.19
2022-03-27T21:18:00,pth,2.40
2022-03-27T21:19:00,pth,1.20
2022-03-27T21:21:00,pth,3.60
2022-03-27T21:22:00,pth,1.20
2022-03-27T21:23:00,pth,1.20
2022-03-27T21:25:00,pth,2.40
2022-03-27T21:26:00,pth,2.40
2022-03-27T21:27:00,pth,1.20
2022-03-27T21:29:00,pth,2.40
2022-03-27T21:31:00,pth,3.60
2022-03-27T21:32:00,pth,1.19
2022-03-27T21:34:00,pth,2.40
2022-03-27T21:36:00,pth,3.60
2022-03-27T21:37:00,pth,1.19
2022-03-27T21:39:00,pth,4.80
2022-03-27T21:41:00,pth,3.60
2022-03-27T21:43:00,pth,2.40
2022-03-27T21:45:00,pth,3.60
2022-03-27T21:47:00,pth,3.60
2022-03-27T21:49:00,pth,3.60
2022-03-27T21:50:00,pth,1.19
2022-03-27T21:52:00,pth,3.60
2022-03-27T21:54:00,pth,2.40
2022-03-27T21:55:00,pth,1.19
2022-03-27T21:56:00,pth,2.40
2022-03-27T21:58:00,pth,2.40
2022-03-27T22:00:00,pth,2.40
2022-03-27T22:01:00,pth,1.20
2022-03-27T22:03:00,pth,3.60
2022-03-27T22:05:00,pth,2.40
2022-03-27T22:07:00,pth,2.40
2022-03-27T22:08:00,pth,1.20
2022-03-27T22:10:00,pth,3.60
2022-03-27T22:11:00,pth,1.19
2022-03-27T22:13:00,pth,2.40
2022-03-27T22:15:00,pth,3.60
2022-03-27T22:16:00,pth,1.19
2022-03-27T22:18:00,pth,2.40
2022-03-27T22:20:00,pth,3.60
2022-03-27T22:21:00,pth,1.19
2022-03-27T22:23:00,pth,2.40
2022-03-27T22:24:00,pth,1.20
2022-03-27T22:26:00,pth,2.40
2022-03-27T22:27:00,pth,1.19
2022-03-27T22:29:00,pth,3.60
2022-03-27T22:30:00,pth,1.20
2022-03-27T22:32:00,pth,2.40
2022-03-27T22:34:00,pth,3.60
2022-03-27T22:35:00,pth,1.20
2022-03-27T22:37:00,pth,2.40
2022-03-27T22:38:00,pth,1.19
2022-03-27T22:40:00,pth,2.40
2022-03-27T22:41:00,pth,1.20
2022-03-27T22:43:00,pth,2.40
2022-03-27T22:44:00,pth,2.40
2022-03-27T22:46:00,pth,2.40
2022-03-27T22:47:00,pth,1.20
2022-03-27T22:49:00,pth,2.40
2022-03-27T22:51:00,pth,2.40
2022-03-27T22:53:00,pth,3.60
2022-03-27T22:55:00,pth,2.40
2022-03-27T22:56:00,pth,2.40
2022-03-27T22:58:00,pth,2.40
2022-03-27T23:00:00,pth,2.40
2022-03-27T23:02:00,pth,3.60
2022-03-27T23:04:00,pth,2.40
2022-03-27T23:06:00,pth,3.60
2022-03-27T23:08:00,pth,2.40
2022-03-27T23:10:00,pth,3.60
2022-03-27T23:12:00,pth,2.40
2022-03-27T23:14:00,pth,2.40
2022-03-27T23:16:00,pth,2.40
2022-03-27T23:17:00,pth,1.20
2022-03-27T23:19:00,pth,2.40
2022-03-27T23:21:00,pth,2.40
2022-03-27T23:22:00,pth,1.19
2022-03-27T23:24:00,pth,2.40
2022-03-27T23:26:00,pth,1.20
2022-03-27T23:27:00,pth,1.20
2022-03-27T23:29:00,pth,2.40
2022-03-27T23:30:00,pth,1.20
2022-03-27T23:32:00,pth,2.40
2022-03-27T23:34:00,pth,2.40
2022-03-27T23:36:00,pth,2.40
2022-03-27T23:38:00,pth,2.40
2022-03-27T23:40:00,pth,2.40
2022-03-27T23:42:00,pth,2.40
2022-03-27T23:44:00,pth,1.20
2022-03-27T23:46:00,pth,2.40
2022-03-27T23:48:00,pth,2.40
2022-03-27T23:50:00,pth,2.40
